Mount Airy, NC

4:34 AM EDT on September 20, 2019 (GMT -0400)
Mount Airy-Surry County

Weather History for KMWK - July, 2019

Change the Weather History Date:

Sunday, July 21, 2019

  Actual Average (WUND) Record (WUND)
Temperature  
Mean Temperature 80 °F -  
Max Temperature 90 °F - - (-1)
Min Temperature 71 °F - - (-1)
Cooling Degree Days 16    
Growing Degree Days 30 (Base 50)    
Moisture  
Dew Point 73 °F    
Average Humidity 83    
Maximum Humidity 91    
Minimum Humidity 60    
Precipitation  
Precipitation 0.00 in - - ()
Sea Level Pressure  
Sea Level Pressure 30.04 in    
Wind  
Wind Speed 1 mph (SW)    
Max Wind Speed 8 mph    
Max Gust Speed -    
Visibility 10 miles    
Events      
Averages and records for this station are not official NWS values.
T = Trace of Precipitation, MM = Missing Value Source: NWS Daily Summary

Daily Weather History Graph

Daily Weather History Graph

Search for Another Location

Airport or City:

Astronomy

Jul. 21, 2019 Rise Set
Actual Time 6:19 AM EDT 8:36 PM EDT
Civil Twilight 5:50 AM EDT 9:06 PM EDT
Nautical Twilight 5:14 AM EDT 9:42 PM EDT
Astronomical Twilight 4:35 AM EDT 10:21 PM EDT
Moon 11:37 PM EDT (7/21) 10:33 AM EDT (7/21)
Length of Visible Light 15h 15m
Length of Day
14h 17m
Waning Gibbous, 80% of the Moon is Illuminated
Jul 21
Waning Gibbous
Jul 24
Last Quarter
Jul 31
New
Aug 7
First Quarter
Aug 15
Full

Hourly Weather History & Observations

Time (EDT) Temp. Heat Index Dew Point Humidity Pressure Visibility Wind Dir Wind Speed Gust Speed Precip Events Conditions
12:00 AM 74.3 °F - 71.6 °F 91% 30.06 in 10.0 mi Calm Calm - N/A   Clear
12:20 AM 73.9 °F - 71.1 °F 91% 30.06 in 10.0 mi Calm Calm - N/A   Clear
12:40 AM 74.3 °F - 71.6 °F 91% 30.06 in 10.0 mi Calm Calm - N/A   Clear
1:00 AM 73.9 °F - 71.1 °F 91% 30.06 in 10.0 mi Calm Calm - N/A   Clear
1:20 AM 73.4 °F - 70.5 °F 91% 30.06 in 10.0 mi Calm Calm - N/A   Clear
1:40 AM 73.4 °F - 70.7 °F 91% 30.06 in 10.0 mi Calm Calm - N/A   Clear
2:00 AM 73.8 °F - 70.9 °F 91% 30.06 in 10.0 mi Calm Calm - N/A   Clear
2:20 AM 73.0 °F - 70.3 °F 91% 30.05 in 10.0 mi Calm Calm - N/A   Scattered Clouds
2:40 AM 73.0 °F - 70.3 °F 91% 30.05 in 10.0 mi Calm Calm - N/A   Mostly Cloudy
3:00 AM 74.3 °F - 71.6 °F 91% 30.05 in 10.0 mi Calm Calm - N/A   Mostly Cloudy
3:20 AM 73.6 °F - 70.7 °F 91% 30.04 in 10.0 mi Calm Calm - N/A   Scattered Clouds
3:40 AM 73.0 °F - 70.3 °F 91% 30.04 in 10.0 mi Calm Calm - N/A   Clear
4:00 AM 73.4 °F - 70.7 °F 91% 30.04 in 10.0 mi Calm Calm - N/A   Scattered Clouds
4:20 AM 73.6 °F - 70.7 °F 91% 30.04 in 10.0 mi Calm Calm - N/A   Clear
4:40 AM 73.4 °F - 70.3 °F 90% 30.04 in 7.0 mi Calm Calm - N/A   Clear
5:00 AM 73.0 °F - 70.2 °F 91% 30.03 in 10.0 mi Calm Calm - N/A   Clear
5:20 AM 73.2 °F - 70.5 °F 91% 30.03 in 10.0 mi Calm Calm - N/A   Clear
5:40 AM 72.7 °F - 70.0 °F 91% 30.03 in 7.0 mi Calm Calm - N/A   Clear
6:00 AM 72.5 °F - 69.4 °F 90% 30.03 in 7.0 mi Calm Calm - N/A   Clear
6:20 AM 72.1 °F - 69.1 °F 90% 30.03 in 10.0 mi Calm Calm - N/A   Clear
6:40 AM 71.6 °F - 68.9 °F 91% 30.04 in 5.0 mi NW 3.5 mph - N/A   Clear
7:00 AM 72.5 °F - 69.8 °F 91% 30.04 in 4.0 mi Calm Calm - N/A   Scattered Clouds
7:20 AM 72.5 °F - 69.8 °F 91% 30.05 in 7.0 mi Calm Calm - N/A   Clear
7:40 AM 73.4 °F - 70.7 °F 91% 30.06 in 10.0 mi Calm Calm - N/A   Clear
8:00 AM 74.8 °F - 72.0 °F 91% 30.05 in 10.0 mi Calm Calm - N/A   Clear
8:20 AM 76.1 °F - 73.2 °F 91% 30.06 in 10.0 mi Calm Calm - N/A   Clear
8:40 AM 77.4 °F - 74.1 °F 90% 30.07 in 10.0 mi Calm Calm - N/A   Clear
9:00 AM 79.0 °F - 74.7 °F 87% 30.07 in 10.0 mi Calm Calm - N/A   Clear
9:20 AM 79.9 °F - 75.0 °F 85% 30.06 in 10.0 mi SE 3.5 mph - N/A   Clear
9:40 AM 80.1 °F 84.8 °F 74.7 °F 83% 30.06 in 10.0 mi SSW 3.5 mph - N/A   Clear
10:00 AM 80.1 °F 85.2 °F 75.4 °F 86% 30.05 in 10.0 mi SSE 3.5 mph - N/A   Clear
10:20 AM 79.5 °F - 75.7 °F 88% 30.06 in 10.0 mi SSE 4.6 mph - N/A   Clear
10:40 AM 80.1 °F 85.1 °F 75.2 °F 85% 30.07 in 10.0 mi WSW 4.6 mph - N/A   Clear
11:00 AM 81.0 °F 87.3 °F 76.1 °F 85% 30.07 in 10.0 mi SSW 4.6 mph - N/A   Clear
11:20 AM 81.5 °F 88.3 °F 75.9 °F 83% 30.07 in 10.0 mi Calm Calm - N/A   Clear
11:40 AM 82.8 °F 91.0 °F 76.5 °F 81% 30.07 in 10.0 mi South 3.5 mph - N/A   Clear
12:00 PM 83.8 °F 93.2 °F 76.8 °F 79% 30.06 in 10.0 mi SSW 8.1 mph - N/A   Clear
12:20 PM 85.6 °F 96.4 °F 77.0 °F 75% 30.05 in 10.0 mi South 8.1 mph - N/A   Clear
12:40 PM 86.2 °F 96.0 °F 75.9 °F 71% 30.05 in 10.0 mi SSW 5.8 mph - N/A   Clear
1:00 PM 87.3 °F 96.3 °F 74.8 °F 66% 30.05 in 10.0 mi SSW 5.8 mph - N/A   Clear
1:20 PM 87.3 °F 95.3 °F 73.9 °F 64% 30.04 in 10.0 mi SSW 8.1 mph - N/A   Clear
1:40 PM 87.3 °F 97.7 °F 76.1 °F 69% 30.04 in 10.0 mi SSE 6.9 mph - N/A   Clear
2:00 PM 87.8 °F 97.6 °F 75.2 °F 66% 30.03 in 10.0 mi SSW 5.8 mph - N/A   Clear
2:20 PM 87.8 °F 97.6 °F 75.2 °F 66% 30.03 in 10.0 mi SSE 3.5 mph - N/A   Clear
2:40 PM 88.2 °F 98.0 °F 75.0 °F 65% 30.03 in 10.0 mi Calm Calm - N/A   Clear
3:00 PM 88.9 °F 99.7 °F 75.7 °F 65% 30.02 in 10.0 mi SSE 3.5 mph - N/A   Clear
3:20 PM 90.1 °F 101.8 °F 75.9 °F 63% 30.01 in 10.0 mi WSW 5.8 mph - N/A   Clear
3:40 PM 89.6 °F 98.7 °F 73.9 °F 60% 30.02 in 10.0 mi West 4.6 mph - N/A   Clear
4:00 PM 89.1 °F 99.1 °F 74.8 °F 63% 30.02 in 10.0 mi WNW 5.8 mph - N/A   Scattered Clouds
4:20 PM 87.4 °F 97.7 °F 75.6 °F 68% 30.03 in 10.0 mi North 4.6 mph - N/A   Scattered Clouds
4:40 PM 85.1 °F 92.6 °F 73.9 °F 69% 30.03 in 10.0 mi NNW 3.5 mph - N/A   Clear
5:00 PM 84.7 °F 93.2 °F 75.4 °F 73% 30.02 in 10.0 mi Calm Calm - N/A   Clear
5:20 PM 83.8 °F 91.8 °F 75.2 °F 75% 30.02 in 10.0 mi WNW 3.5 mph - N/A   Clear
5:40 PM 82.6 °F 89.9 °F 75.4 °F 79% 30.00 in 10.0 mi Calm Calm - N/A   Clear
6:00 PM 83.3 °F 91.8 °F 76.1 °F 79% 30.00 in 10.0 mi Calm Calm - N/A   Clear
6:20 PM 82.4 °F 90.3 °F 76.3 °F 82% 30.00 in 10.0 mi WNW 4.6 mph - N/A   Clear
6:40 PM 81.5 °F 88.3 °F 75.7 °F 83% 30.00 in 10.0 mi Calm Calm - N/A   Clear
7:00 PM 81.1 °F 87.6 °F 75.9 °F 84% 30.00 in 10.0 mi Calm Calm - N/A   Clear
7:20 PM 80.6 °F 86.4 °F 75.6 °F 85% 30.01 in 10.0 mi Calm Calm - N/A   Clear
7:40 PM 80.2 °F 85.2 °F 74.7 °F 83% 30.01 in 10.0 mi Calm Calm - N/A   Clear
8:00 PM 80.1 °F 84.8 °F 74.7 °F 83% 30.01 in 10.0 mi Calm Calm - N/A   Clear
8:20 PM 80.1 °F 84.9 °F 74.8 °F 84% 30.01 in 10.0 mi Calm Calm - N/A   Clear
8:40 PM 78.4 °F - 74.3 °F 87% 30.02 in 10.0 mi Calm Calm - N/A   Clear
9:00 PM 78.1 °F - 74.3 °F 88% 30.02 in 10.0 mi Calm Calm - N/A   Clear
9:20 PM 77.9 °F - 73.8 °F 87% 30.02 in 10.0 mi Calm Calm - N/A   Clear
9:40 PM 77.4 °F - 73.9 °F 89% 30.02 in 10.0 mi Calm Calm - N/A   Clear
10:00 PM 77.4 °F - 73.8 °F 89% 30.03 in 10.0 mi Calm Calm - N/A   Clear
10:20 PM 77.4 °F - 74.3 °F 90% 30.03 in 10.0 mi Calm Calm - N/A   Clear
10:40 PM 77.0 °F - 73.9 °F 90% 30.03 in 10.0 mi Calm Calm - N/A   Clear
11:00 PM 76.6 °F - 73.8 °F 91% 30.02 in 10.0 mi Calm Calm - N/A   Clear
11:20 PM 76.6 °F - 73.6 °F 90% 30.02 in 10.0 mi Calm Calm - N/A   Clear
11:40 PM 76.1 °F - 73.4 °F 91% 30.02 in 10.0 mi Calm Calm - N/A   Clear